Year,Month,Day,Hour,Minute,Value (Times are PST for temperature in C)
2019,02,27,00,00,-4.70
2019,02,27,00,01,-4.70
2019,02,27,00,02,-4.70
2019,02,27,00,03,-4.80
2019,02,27,00,04,-4.80
2019,02,27,00,05,-4.80
2019,02,27,00,06,-4.80
2019,02,27,00,07,-4.80
2019,02,27,00,08,-4.80
2019,02,27,00,09,-4.80
2019,02,27,00,10,-4.80
2019,02,27,00,11,-4.80
2019,02,27,00,12,-4.80
2019,02,27,00,13,-4.80
2019,02,27,00,14,-4.80
2019,02,27,00,15,-4.80
2019,02,27,00,16,-4.90
2019,02,27,00,17,-4.90
2019,02,27,00,18,-4.90
2019,02,27,00,19,-4.90
2019,02,27,00,20,-5.00
2019,02,27,00,21,-5.00
2019,02,27,00,22,-5.00
2019,02,27,00,23,-5.10
2019,02,27,00,24,-5.10
2019,02,27,00,25,-5.10
2019,02,27,00,26,-5.10
2019,02,27,00,27,-5.10
2019,02,27,00,28,-5.10
2019,02,27,00,29,-5.10
2019,02,27,00,30,-5.10
2019,02,27,00,31,-5.10
2019,02,27,00,32,-5.20
2019,02,27,00,33,-5.20
2019,02,27,00,34,-5.20
2019,02,27,00,35,-5.20
2019,02,27,00,36,-5.20
2019,02,27,00,37,-5.20
2019,02,27,00,38,-5.20
2019,02,27,00,39,-5.20
2019,02,27,00,40,-5.20
2019,02,27,00,41,-5.20
2019,02,27,00,42,-5.20
2019,02,27,00,43,-5.20
2019,02,27,00,44,-5.20
2019,02,27,00,45,-5.20
2019,02,27,00,46,-5.20
2019,02,27,00,47,-5.20
2019,02,27,00,48,-5.20
2019,02,27,00,49,-5.20
2019,02,27,00,50,-5.20
2019,02,27,00,51,-5.10
2019,02,27,00,52,-5.10
2019,02,27,00,53,-5.10
2019,02,27,00,54,-5.10
2019,02,27,00,55,-5.10
2019,02,27,00,56,-5.10
2019,02,27,00,57,-5.10
2019,02,27,00,58,-5.10
2019,02,27,00,59,-5.10
2019,02,27,01,00,-5.10
2019,02,27,01,01,-5.10
2019,02,27,01,02,-5.20
2019,02,27,01,03,-5.20
2019,02,27,01,04,-5.20
2019,02,27,01,05,-5.20
2019,02,27,01,06,-5.20
2019,02,27,01,07,-5.20
2019,02,27,01,08,-5.20
2019,02,27,01,09,-5.20
2019,02,27,01,10,-5.20
2019,02,27,01,11,-5.20
2019,02,27,01,12,-5.20
2019,02,27,01,13,-5.20
2019,02,27,01,14,-5.30
2019,02,27,01,15,-5.30
2019,02,27,01,16,-5.30
2019,02,27,01,17,-5.30
2019,02,27,01,18,-5.40
2019,02,27,01,19,-5.40
2019,02,27,01,20,-5.40
2019,02,27,01,21,-5.40
2019,02,27,01,22,-5.40
2019,02,27,01,23,-5.40
2019,02,27,01,24,-5.40
2019,02,27,01,25,-5.40
2019,02,27,01,26,-5.40
2019,02,27,01,27,-5.40
2019,02,27,01,28,-5.40
2019,02,27,01,29,-5.40
2019,02,27,01,30,-5.40
2019,02,27,01,31,-5.50
2019,02,27,01,32,-5.50
2019,02,27,01,33,-5.60
2019,02,27,01,34,-5.60
2019,02,27,01,35,-5.60
2019,02,27,01,36,-5.60
2019,02,27,01,37,-5.60
2019,02,27,01,38,-5.60
2019,02,27,01,39,-5.70
2019,02,27,01,40,-5.70
2019,02,27,01,41,-5.70
2019,02,27,01,42,-5.70
2019,02,27,01,43,-5.70
2019,02,27,01,44,-5.70
2019,02,27,01,45,-5.70
2019,02,27,01,46,-5.70
2019,02,27,01,47,-5.70
2019,02,27,01,48,-5.70
2019,02,27,01,49,-5.80
2019,02,27,01,50,-5.80
2019,02,27,01,51,-5.80
2019,02,27,01,52,-5.80
2019,02,27,01,53,-5.80
2019,02,27,01,54,-5.80
2019,02,27,01,55,-5.80
2019,02,27,01,56,-5.70
2019,02,27,01,57,-5.70
2019,02,27,01,58,-5.70
2019,02,27,01,59,-5.70
2019,02,27,02,00,-5.80
2019,02,27,02,01,-5.80
2019,02,27,02,02,-5.80
2019,02,27,02,03,-5.80
2019,02,27,02,04,-5.80
2019,02,27,02,05,-5.80
2019,02,27,02,06,-5.80
2019,02,27,02,07,-5.80
2019,02,27,02,08,-5.80
2019,02,27,02,09,-5.80
2019,02,27,02,10,-5.80
2019,02,27,02,11,-5.80
2019,02,27,02,12,-5.80
2019,02,27,02,13,-5.80
2019,02,27,02,14,-5.70
2019,02,27,02,15,-5.80
2019,02,27,02,16,-5.80
2019,02,27,02,17,-5.80
2019,02,27,02,18,-5.80
2019,02,27,02,19,-5.80
2019,02,27,02,20,-5.80
2019,02,27,02,21,-5.80
2019,02,27,02,22,-5.80
2019,02,27,02,23,-5.90
2019,02,27,02,24,-5.90
2019,02,27,02,25,-5.90
2019,02,27,02,26,-5.90
2019,02,27,02,27,-6.00
2019,02,27,02,28,-6.00
2019,02,27,02,29,-6.00
2019,02,27,02,30,-6.00
2019,02,27,02,31,-6.00
2019,02,27,02,32,-6.10
2019,02,27,02,33,-6.10
2019,02,27,02,34,-6.10
2019,02,27,02,35,-6.10
2019,02,27,02,36,-6.10
2019,02,27,02,37,-6.10
2019,02,27,02,38,-6.10
2019,02,27,02,39,-6.10
2019,02,27,02,40,-6.10
2019,02,27,02,41,-6.10
2019,02,27,02,42,-6.10
2019,02,27,02,43,-6.10
2019,02,27,02,44,-6.10
2019,02,27,02,45,-6.10
2019,02,27,02,46,-6.10
2019,02,27,02,47,-6.10
2019,02,27,02,48,-6.10
2019,02,27,02,49,-6.20
2019,02,27,02,50,-6.20
2019,02,27,02,51,-6.20
2019,02,27,02,52,-6.20
2019,02,27,02,53,-6.20
2019,02,27,02,54,-6.20
2019,02,27,02,55,-6.20
2019,02,27,02,56,-6.20
2019,02,27,02,57,-6.20
2019,02,27,02,58,-6.20
2019,02,27,02,59,-6.20
2019,02,27,03,00,-6.20
2019,02,27,03,01,-6.20
2019,02,27,03,02,-6.20
2019,02,27,03,03,-6.20
2019,02,27,03,04,-6.20
2019,02,27,03,05,-6.20
2019,02,27,03,06,-6.20
2019,02,27,03,07,-6.20
2019,02,27,03,08,-6.20
2019,02,27,03,09,-6.20
2019,02,27,03,10,-6.20
2019,02,27,03,11,-6.20
2019,02,27,03,12,-6.30
2019,02,27,03,13,-6.30
2019,02,27,03,14,-6.30
2019,02,27,03,15,-6.30
2019,02,27,03,16,-6.30
2019,02,27,03,17,-6.30
2019,02,27,03,18,-6.30
2019,02,27,03,19,-6.40
2019,02,27,03,20,-6.40
2019,02,27,03,21,-6.40
2019,02,27,03,22,-6.40
2019,02,27,03,23,-6.40
2019,02,27,03,24,-6.40
2019,02,27,03,25,-6.40
2019,02,27,03,26,-6.40
2019,02,27,03,27,-6.40
2019,02,27,03,28,-6.50
2019,02,27,03,29,-6.50
2019,02,27,03,30,-6.50
2019,02,27,03,31,-6.50
2019,02,27,03,32,-6.50
2019,02,27,03,33,-6.50
2019,02,27,03,34,-6.50
2019,02,27,03,35,-6.50
2019,02,27,03,36,-6.50
2019,02,27,03,37,-6.50
2019,02,27,03,38,-6.50
2019,02,27,03,39,-6.50
2019,02,27,03,40,-6.50
2019,02,27,03,41,-6.50
2019,02,27,03,42,-6.50
2019,02,27,03,43,-6.50
2019,02,27,03,44,-6.50
2019,02,27,03,45,-6.50
2019,02,27,03,46,-6.60
2019,02,27,03,47,-6.60
2019,02,27,03,48,-6.50
2019,02,27,03,49,-6.60
2019,02,27,03,50,-6.60
2019,02,27,03,51,-6.60
2019,02,27,03,52,-6.60
2019,02,27,03,53,-6.60
2019,02,27,03,54,-6.60
2019,02,27,03,55,-6.60
2019,02,27,03,56,-6.60
2019,02,27,03,57,-6.60
2019,02,27,03,58,-6.60
2019,02,27,03,59,-6.60
2019,02,27,04,00,-6.60
2019,02,27,04,01,-6.60
2019,02,27,04,02,-6.60
2019,02,27,04,03,-6.60
2019,02,27,04,04,-6.70
2019,02,27,04,05,-6.70
2019,02,27,04,06,-6.70
2019,02,27,04,07,-6.70
2019,02,27,04,08,-6.70
2019,02,27,04,09,-6.70
2019,02,27,04,10,-6.70
2019,02,27,04,11,-6.70
2019,02,27,04,12,-6.70
2019,02,27,04,13,-6.70
2019,02,27,04,14,-6.70
2019,02,27,04,15,-6.80
2019,02,27,04,16,-6.80
2019,02,27,04,17,-6.80
2019,02,27,04,18,-6.80
2019,02,27,04,19,-6.80
2019,02,27,04,20,-6.80
2019,02,27,04,21,-6.80
2019,02,27,04,22,-6.70
2019,02,27,04,23,-6.70
2019,02,27,04,24,-6.70
2019,02,27,04,25,-6.70
2019,02,27,04,26,-6.60
2019,02,27,04,27,-6.60
2019,02,27,04,28,-6.60
2019,02,27,04,29,-6.60
2019,02,27,04,30,-6.60
2019,02,27,04,31,-6.60
2019,02,27,04,32,-6.60
2019,02,27,04,33,-6.60
2019,02,27,04,34,-6.60
2019,02,27,04,35,-6.50
2019,02,27,04,36,-6.50
2019,02,27,04,37,-6.50
2019,02,27,04,38,-6.50
2019,02,27,04,39,-6.50
2019,02,27,04,40,-6.40
2019,02,27,04,41,-6.50
2019,02,27,04,42,-6.40
2019,02,27,04,43,-6.40
2019,02,27,04,44,-6.40
2019,02,27,04,45,-6.40
2019,02,27,04,46,-6.40
2019,02,27,04,47,-6.40
2019,02,27,04,48,-6.40
2019,02,27,04,49,-6.30
2019,02,27,04,50,-6.30
2019,02,27,04,51,-6.30
2019,02,27,04,52,-6.30
2019,02,27,04,53,-6.30
2019,02,27,04,54,-6.20
2019,02,27,04,55,-6.20
2019,02,27,04,56,-6.20
2019,02,27,04,57,-6.20
2019,02,27,04,58,-6.20
2019,02,27,04,59,-6.20
2019,02,27,05,00,-6.20
2019,02,27,05,01,-6.20
2019,02,27,05,02,-6.20
2019,02,27,05,03,-6.10
2019,02,27,05,04,-6.10
2019,02,27,05,05,-6.10
2019,02,27,05,06,-6.10
2019,02,27,05,07,-6.10
2019,02,27,05,08,-6.10
2019,02,27,05,09,-6.10
2019,02,27,05,10,-6.10
2019,02,27,05,11,-6.10
2019,02,27,05,12,-6.10
2019,02,27,05,13,-6.10
2019,02,27,05,14,-6.10
2019,02,27,05,15,-6.10
2019,02,27,05,16,-6.10
2019,02,27,05,17,-6.10
2019,02,27,05,18,-6.10
2019,02,27,05,19,-6.10
2019,02,27,05,20,-6.10
2019,02,27,05,21,-6.10
2019,02,27,05,22,-6.10
2019,02,27,05,23,-6.10
2019,02,27,05,24,-6.00
2019,02,27,05,25,-6.00
2019,02,27,05,26,-5.90
2019,02,27,05,27,-5.90
2019,02,27,05,28,-5.90
2019,02,27,05,29,-5.90
2019,02,27,05,30,-5.80
2019,02,27,05,31,-5.80
2019,02,27,05,32,-5.70
2019,02,27,05,33,-5.70
2019,02,27,05,34,-5.70
2019,02,27,05,35,-5.70
2019,02,27,05,36,-5.70
2019,02,27,05,37,-5.70
2019,02,27,05,38,-5.70
2019,02,27,05,39,-5.60
2019,02,27,05,40,-5.60
2019,02,27,05,41,-5.60
2019,02,27,05,42,-5.60
2019,02,27,05,43,-5.50
2019,02,27,05,44,-5.50
2019,02,27,05,45,-5.40
2019,02,27,05,46,-5.40
2019,02,27,05,47,-5.40
2019,02,27,05,48,-5.40
2019,02,27,05,49,-5.40
2019,02,27,05,50,-5.40
2019,02,27,05,51,-5.40
2019,02,27,05,52,-5.40
2019,02,27,05,53,-5.40
2019,02,27,05,54,-5.40
2019,02,27,05,55,-5.40
2019,02,27,05,56,-5.40
2019,02,27,05,57,-5.30
2019,02,27,05,58,-5.30
2019,02,27,05,59,-5.30
2019,02,27,06,00,-5.30
2019,02,27,06,01,-5.20
2019,02,27,06,02,-5.20
2019,02,27,06,03,-5.20
2019,02,27,06,04,-5.10
2019,02,27,06,05,-5.10
2019,02,27,06,06,-5.10
2019,02,27,06,07,-5.10
2019,02,27,06,08,-5.10
2019,02,27,06,09,-5.00
2019,02,27,06,10,-5.00
2019,02,27,06,11,-4.90
2019,02,27,06,12,-4.90
2019,02,27,06,13,-4.90
2019,02,27,06,14,-4.90
2019,02,27,06,15,-4.90
2019,02,27,06,16,-4.90
2019,02,27,06,17,-4.90
2019,02,27,06,18,-4.90
2019,02,27,06,19,-4.90
2019,02,27,06,20,-4.90
2019,02,27,06,21,-4.90
2019,02,27,06,22,-4.90
2019,02,27,06,23,-4.80
2019,02,27,06,24,-4.80
2019,02,27,06,25,-4.80
2019,02,27,06,26,-4.80
2019,02,27,06,27,-4.70
2019,02,27,06,28,-4.70
2019,02,27,06,29,-4.70
2019,02,27,06,30,-4.60
2019,02,27,06,31,-4.60
2019,02,27,06,32,-4.60
2019,02,27,06,33,-4.60
2019,02,27,06,34,-4.60
2019,02,27,06,35,-4.50
2019,02,27,06,36,-4.50
2019,02,27,06,37,-4.50
2019,02,27,06,38,-4.40
2019,02,27,06,39,-4.40
2019,02,27,06,40,-4.40
2019,02,27,06,41,-4.40
2019,02,27,06,42,-4.40
2019,02,27,06,43,-4.40
2019,02,27,06,44,-4.40
2019,02,27,06,45,-4.40
2019,02,27,06,46,-4.40
2019,02,27,06,47,-4.40
2019,02,27,06,48,-4.40
2019,02,27,06,49,-4.40
2019,02,27,06,50,-4.40
2019,02,27,06,51,-4.40
2019,02,27,06,52,-4.30
2019,02,27,06,53,-4.30
2019,02,27,06,54,-4.30
2019,02,27,06,55,-4.30
2019,02,27,06,56,-4.30
2019,02,27,06,57,-4.30
2019,02,27,06,58,-4.30
2019,02,27,06,59,-4.30
2019,02,27,07,00,-4.30
2019,02,27,07,01,-4.30
2019,02,27,07,02,-4.30
2019,02,27,07,03,-4.30
2019,02,27,07,04,-4.30
2019,02,27,07,05,-4.30
2019,02,27,07,06,-4.30
2019,02,27,07,07,-4.30
2019,02,27,07,08,-4.20
2019,02,27,07,09,-4.20
2019,02,27,07,10,-4.20
2019,02,27,07,11,-4.20
2019,02,27,07,12,-4.20
2019,02,27,07,13,-4.20
2019,02,27,07,14,-4.20
2019,02,27,07,15,-4.20
2019,02,27,07,16,-4.10
2019,02,27,07,17,-4.10
2019,02,27,07,18,-4.10
2019,02,27,07,19,-4.10
2019,02,27,07,20,-4.10
2019,02,27,07,21,-4.20
2019,02,27,07,22,-4.10
2019,02,27,07,23,-4.10
2019,02,27,07,24,-4.10
2019,02,27,07,25,-4.10
2019,02,27,07,26,-4.00
2019,02,27,07,27,-4.00
2019,02,27,07,28,-3.90
2019,02,27,07,29,-3.90
2019,02,27,07,30,-3.90
2019,02,27,07,31,-3.90
2019,02,27,07,32,-3.90
2019,02,27,07,33,-3.90
2019,02,27,07,34,-3.90
2019,02,27,07,35,-3.90
2019,02,27,07,36,-3.80
2019,02,27,07,37,-3.80
2019,02,27,07,38,-3.80
2019,02,27,07,39,-3.80
2019,02,27,07,40,-3.80
2019,02,27,07,41,-3.70
2019,02,27,07,42,-3.70
2019,02,27,07,43,-3.70
2019,02,27,07,44,-3.70
2019,02,27,07,45,-3.70
2019,02,27,07,46,-3.70
2019,02,27,07,47,-3.70
2019,02,27,07,48,-3.70
2019,02,27,07,49,-3.60
2019,02,27,07,50,-3.60
2019,02,27,07,51,-3.50
2019,02,27,07,52,-3.40
2019,02,27,07,53,-3.40
2019,02,27,07,54,-3.40
2019,02,27,07,55,-3.40
2019,02,27,07,56,-3.40
2019,02,27,07,57,-3.40
2019,02,27,07,58,-3.40
2019,02,27,07,59,-3.40
2019,02,27,08,00,-3.40
2019,02,27,08,01,-3.40
2019,02,27,08,02,-3.40
2019,02,27,08,03,-3.40
2019,02,27,08,04,-3.40
2019,02,27,08,05,-3.40
2019,02,27,08,06,-3.30
2019,02,27,08,07,-3.20
2019,02,27,08,08,-3.00
2019,02,27,08,09,-2.90
2019,02,27,08,10,-2.90
2019,02,27,08,11,-2.80
2019,02,27,08,12,-2.80
2019,02,27,08,13,-2.70
2019,02,27,08,14,-2.70
2019,02,27,08,15,-2.70
2019,02,27,08,16,-2.70
2019,02,27,08,17,-2.70
2019,02,27,08,18,-2.60
2019,02,27,08,19,-2.60
2019,02,27,08,20,-2.50
2019,02,27,08,21,-2.50
2019,02,27,08,22,-2.50
2019,02,27,08,23,-2.40
2019,02,27,08,24,-2.40
2019,02,27,08,25,-2.40
2019,02,27,08,26,-2.40
2019,02,27,08,27,-2.40
2019,02,27,08,28,-2.40
2019,02,27,08,29,-2.40
2019,02,27,08,30,-2.40
2019,02,27,08,31,-2.40
2019,02,27,08,32,-2.40
2019,02,27,08,33,-2.40
2019,02,27,08,34,-2.40
2019,02,27,08,35,-2.40
2019,02,27,08,36,-2.50
2019,02,27,08,37,-2.50
2019,02,27,08,38,-2.50
2019,02,27,08,39,-2.50
2019,02,27,08,40,-2.50
2019,02,27,08,41,-2.40
2019,02,27,08,42,-2.40
2019,02,27,08,43,-2.40
2019,02,27,08,44,-2.30
2019,02,27,08,45,-2.30
2019,02,27,08,46,-2.30
2019,02,27,08,47,-2.30
2019,02,27,08,48,-2.20
2019,02,27,08,49,-2.20
2019,02,27,08,50,-2.20
2019,02,27,08,51,-2.10
2019,02,27,08,52,-2.10
2019,02,27,08,53,-2.00
2019,02,27,08,54,-1.90
2019,02,27,08,55,-1.80
2019,02,27,08,56,-1.80
2019,02,27,08,57,-1.70
2019,02,27,08,58,-1.70
2019,02,27,08,59,-1.70
2019,02,27,09,00,-1.60
2019,02,27,09,01,-1.60
2019,02,27,09,02,-1.60
2019,02,27,09,03,-1.50
2019,02,27,09,04,-1.50
2019,02,27,09,05,-1.40
2019,02,27,09,06,-1.40
2019,02,27,09,07,-1.30
2019,02,27,09,08,-1.30
2019,02,27,09,09,-1.30
2019,02,27,09,10,-1.20
2019,02,27,09,11,-1.20
2019,02,27,09,12,-1.20
2019,02,27,09,13,-1.20
2019,02,27,09,14,-1.20
2019,02,27,09,15,-1.20
2019,02,27,09,16,-1.20
2019,02,27,09,17,-1.20
2019,02,27,09,18,-1.30
2019,02,27,09,19,-1.30
2019,02,27,09,20,-1.30
2019,02,27,09,21,-1.30
2019,02,27,09,22,-1.30
2019,02,27,09,23,-1.30
2019,02,27,09,24,-1.30
2019,02,27,09,25,-1.30
2019,02,27,09,26,-1.30
2019,02,27,09,27,-1.30
2019,02,27,09,28,-1.30
2019,02,27,09,29,-1.30
2019,02,27,09,30,-1.30
2019,02,27,09,31,-1.20
2019,02,27,09,32,-1.20
2019,02,27,09,33,-1.10
2019,02,27,09,34,-1.10
2019,02,27,09,35,-1.00
2019,02,27,09,36,-1.00
2019,02,27,09,37,-0.90
2019,02,27,09,38,-0.80
2019,02,27,09,39,-0.80
2019,02,27,09,40,-0.70
2019,02,27,09,41,-0.70
2019,02,27,09,42,-0.70
2019,02,27,09,43,-0.70
2019,02,27,09,44,-0.70
2019,02,27,09,45,-0.70
2019,02,27,09,46,-0.70
2019,02,27,09,47,-0.70
2019,02,27,09,48,-0.70
2019,02,27,09,49,-0.60
2019,02,27,09,50,-0.60
2019,02,27,09,51,-0.50
2019,02,27,09,52,-0.40
2019,02,27,09,53,-0.30
2019,02,27,09,54,-0.30
2019,02,27,09,55,-0.10
2019,02,27,09,56,0.00
2019,02,27,09,57,0.10
2019,02,27,09,58,0.10
2019,02,27,09,59,0.20
2019,02,27,10,00,0.20
2019,02,27,10,01,0.30
2019,02,27,10,02,0.30
2019,02,27,10,03,0.40
2019,02,27,10,04,0.40
2019,02,27,10,05,0.50
2019,02,27,10,06,0.50
2019,02,27,10,07,0.60
2019,02,27,10,08,0.60
2019,02,27,10,09,0.60
2019,02,27,10,10,0.70
2019,02,27,10,11,0.70
2019,02,27,10,12,0.70
2019,02,27,10,13,0.70
2019,02,27,10,14,0.70
2019,02,27,10,15,0.70
2019,02,27,10,16,0.70
2019,02,27,10,17,0.70
2019,02,27,10,18,0.70
2019,02,27,10,19,0.70
2019,02,27,10,20,0.70
2019,02,27,10,21,0.70
2019,02,27,10,22,0.60
2019,02,27,10,23,0.60
2019,02,27,10,24,0.60
2019,02,27,10,25,0.60
2019,02,27,10,26,0.60
2019,02,27,10,27,0.60
2019,02,27,10,28,0.60
2019,02,27,10,29,0.50
2019,02,27,10,30,0.50
2019,02,27,10,31,0.60
2019,02,27,10,32,0.60
2019,02,27,10,33,0.60
2019,02,27,10,34,0.60
2019,02,27,10,35,0.70
2019,02,27,10,36,0.70
2019,02,27,10,37,0.70
2019,02,27,10,38,0.80
2019,02,27,10,39,0.80
2019,02,27,10,40,0.80
2019,02,27,10,41,0.80
2019,02,27,10,42,0.80
2019,02,27,10,43,0.90
2019,02,27,10,44,0.90
2019,02,27,10,45,0.90
2019,02,27,10,46,0.90
2019,02,27,10,47,0.90
2019,02,27,10,48,1.00
2019,02,27,10,49,1.00
2019,02,27,10,50,1.00
2019,02,27,10,51,1.10
2019,02,27,10,52,1.10
2019,02,27,10,53,1.20
2019,02,27,10,54,1.20
2019,02,27,10,55,1.20
2019,02,27,10,56,1.30
2019,02,27,10,57,1.30
2019,02,27,10,58,1.30
2019,02,27,10,59,1.40
2019,02,27,11,00,1.40
2019,02,27,11,01,1.40
2019,02,27,11,02,1.50
2019,02,27,11,03,1.50
2019,02,27,11,04,1.60
2019,02,27,11,05,1.60
2019,02,27,11,06,1.60
2019,02,27,11,07,1.60
2019,02,27,11,08,1.60
2019,02,27,11,09,1.70
2019,02,27,11,10,1.70
2019,02,27,11,11,1.80
2019,02,27,11,12,1.90
2019,02,27,11,13,1.90
2019,02,27,11,14,2.00
2019,02,27,11,15,2.10
2019,02,27,11,16,2.10
2019,02,27,11,17,2.20
2019,02,27,11,18,2.20
2019,02,27,11,19,2.30
2019,02,27,11,20,2.30
2019,02,27,11,21,2.30
2019,02,27,11,22,2.40
2019,02,27,11,23,2.40
2019,02,27,11,24,2.50
2019,02,27,11,25,2.50
2019,02,27,11,26,2.50
2019,02,27,11,27,2.50
2019,02,27,11,28,2.60
2019,02,27,11,29,2.60
2019,02,27,11,30,2.60
2019,02,27,11,31,2.60
2019,02,27,11,32,2.70
2019,02,27,11,33,2.70
2019,02,27,11,34,2.70
2019,02,27,11,35,2.70
2019,02,27,11,36,2.70
2019,02,27,11,37,2.70
2019,02,27,11,38,2.80
2019,02,27,11,39,2.80
2019,02,27,11,40,2.80
2019,02,27,11,41,2.80
2019,02,27,11,42,2.80
2019,02,27,11,43,2.80
2019,02,27,11,44,2.80
2019,02,27,11,45,2.80
2019,02,27,11,46,2.80
2019,02,27,11,47,2.80
2019,02,27,11,48,2.80
2019,02,27,11,49,2.80
2019,02,27,11,50,2.80
2019,02,27,11,51,2.80
2019,02,27,11,52,2.80
2019,02,27,11,53,2.80
2019,02,27,11,54,2.80
2019,02,27,11,55,2.90
2019,02,27,11,56,2.90
2019,02,27,11,57,2.90
2019,02,27,11,58,3.00
2019,02,27,11,59,3.00
2019,02,27,12,00,3.10
2019,02,27,12,01,3.10
2019,02,27,12,02,3.10
2019,02,27,12,03,3.10
2019,02,27,12,04,3.20
2019,02,27,12,05,3.20
2019,02,27,12,06,3.20
2019,02,27,12,07,3.30
2019,02,27,12,08,3.30
2019,02,27,12,09,3.30
2019,02,27,12,10,3.30
2019,02,27,12,11,3.30
2019,02,27,12,12,3.30
2019,02,27,12,13,3.30
2019,02,27,12,14,3.30
2019,02,27,12,15,3.30
2019,02,27,12,16,3.30
2019,02,27,12,17,3.30
2019,02,27,12,18,3.30
2019,02,27,12,19,3.30
2019,02,27,12,20,3.30
2019,02,27,12,21,3.30
2019,02,27,12,22,3.30
2019,02,27,12,23,3.40
2019,02,27,12,24,3.40
2019,02,27,12,25,3.40
2019,02,27,12,26,3.40
2019,02,27,12,27,3.40
2019,02,27,12,28,3.40
2019,02,27,12,29,3.40
2019,02,27,12,30,3.40
2019,02,27,12,31,3.40
2019,02,27,12,32,3.40
2019,02,27,12,33,3.40
2019,02,27,12,34,3.40
2019,02,27,12,35,3.50
2019,02,27,12,36,3.50
2019,02,27,12,37,3.50
2019,02,27,12,38,3.50
2019,02,27,12,39,3.50
2019,02,27,12,40,3.50
2019,02,27,12,41,3.50
2019,02,27,12,42,3.40
2019,02,27,12,43,3.40
2019,02,27,12,44,3.40
2019,02,27,12,45,3.40
2019,02,27,12,46,3.40
2019,02,27,12,47,3.50
2019,02,27,12,48,3.50
2019,02,27,12,49,3.50
2019,02,27,12,50,3.50
2019,02,27,12,51,3.50
2019,02,27,12,52,3.60
2019,02,27,12,53,3.50
2019,02,27,12,54,3.50
2019,02,27,12,55,3.50
2019,02,27,12,56,3.50
2019,02,27,12,57,3.40
2019,02,27,12,58,3.40
2019,02,27,12,59,3.40
2019,02,27,13,00,3.40
2019,02,27,13,01,3.40
2019,02,27,13,02,3.30
2019,02,27,13,03,3.30
2019,02,27,13,04,3.30
2019,02,27,13,05,3.30
2019,02,27,13,06,3.30
2019,02,27,13,07,3.30
2019,02,27,13,08,3.30
2019,02,27,13,09,3.30
2019,02,27,13,10,3.20
2019,02,27,13,11,3.20
2019,02,27,13,12,3.30
2019,02,27,13,13,3.30
2019,02,27,13,14,3.30
2019,02,27,13,15,3.30
2019,02,27,13,16,3.30
2019,02,27,13,17,3.30
2019,02,27,13,18,3.30
2019,02,27,13,19,3.30
2019,02,27,13,20,3.30
2019,02,27,13,21,3.30
2019,02,27,13,22,3.30
2019,02,27,13,23,3.30
2019,02,27,13,24,3.40
2019,02,27,13,25,3.40
2019,02,27,13,26,3.40
2019,02,27,13,27,3.40
2019,02,27,13,28,3.40
2019,02,27,13,29,3.40
2019,02,27,13,30,3.40
2019,02,27,13,31,3.40
2019,02,27,13,32,3.40
2019,02,27,13,33,3.40
2019,02,27,13,34,3.40
2019,02,27,13,35,3.40
2019,02,27,13,36,3.40
2019,02,27,13,37,3.50
2019,02,27,13,38,3.50
2019,02,27,13,39,3.50
2019,02,27,13,40,3.50
2019,02,27,13,41,3.60
2019,02,27,13,42,3.60
2019,02,27,13,43,3.60
2019,02,27,13,44,3.60
2019,02,27,13,45,3.60
2019,02,27,13,46,3.60
2019,02,27,13,47,3.60
2019,02,27,13,48,3.60
2019,02,27,13,49,3.60
2019,02,27,13,50,3.60
2019,02,27,13,51,3.60
2019,02,27,13,52,3.60
2019,02,27,13,53,3.60
2019,02,27,13,54,3.60
2019,02,27,13,55,3.60
2019,02,27,13,56,3.60
2019,02,27,13,57,3.60
2019,02,27,13,58,3.60
2019,02,27,13,59,3.60
2019,02,27,14,00,3.60
2019,02,27,14,01,3.60
2019,02,27,14,02,3.60
2019,02,27,14,03,3.60
2019,02,27,14,04,3.60
2019,02,27,14,05,3.60
2019,02,27,14,06,3.60
2019,02,27,14,07,3.60
2019,02,27,14,08,3.60
2019,02,27,14,09,3.60
2019,02,27,14,10,3.60
2019,02,27,14,11,3.60
2019,02,27,14,12,3.60
2019,02,27,14,13,3.60
2019,02,27,14,14,3.60
2019,02,27,14,15,3.60
2019,02,27,14,16,3.60
2019,02,27,14,17,3.70
2019,02,27,14,18,3.70
2019,02,27,14,19,3.70
2019,02,27,14,20,3.70
2019,02,27,14,21,3.70
2019,02,27,14,22,3.70
2019,02,27,14,23,3.70
2019,02,27,14,24,3.70
2019,02,27,14,25,3.70
2019,02,27,14,26,3.70
2019,02,27,14,27,3.70
2019,02,27,14,28,3.70
2019,02,27,14,29,3.70
2019,02,27,14,30,3.70
2019,02,27,14,31,3.70
2019,02,27,14,32,3.70
2019,02,27,14,33,3.70
2019,02,27,14,34,3.70
2019,02,27,14,35,3.80
2019,02,27,14,36,3.80
2019,02,27,14,37,3.80
2019,02,27,14,38,3.80
2019,02,27,14,39,3.80
2019,02,27,14,40,3.80
2019,02,27,14,41,3.80
2019,02,27,14,42,3.80
2019,02,27,14,43,3.80
2019,02,27,14,44,3.80
2019,02,27,14,45,3.90
2019,02,27,14,46,3.90
2019,02,27,14,47,3.90
2019,02,27,14,48,3.90
2019,02,27,14,49,3.90
2019,02,27,14,50,3.90
2019,02,27,14,51,3.90
2019,02,27,14,52,3.80
2019,02,27,14,53,3.80
2019,02,27,14,54,3.80
2019,02,27,14,55,3.80
2019,02,27,14,56,3.80
2019,02,27,14,57,3.80
2019,02,27,14,58,3.80
2019,02,27,14,59,3.80
2019,02,27,15,00,3.80
2019,02,27,15,01,3.80
2019,02,27,15,02,3.80
2019,02,27,15,03,3.80
2019,02,27,15,04,3.80
2019,02,27,15,05,3.80
2019,02,27,15,06,3.80
2019,02,27,15,07,3.80
2019,02,27,15,08,3.80
2019,02,27,15,09,3.80
2019,02,27,15,10,3.80
2019,02,27,15,11,3.70
2019,02,27,15,12,3.70
2019,02,27,15,13,3.70
2019,02,27,15,14,3.80
2019,02,27,15,15,3.80
2019,02,27,15,16,3.80
2019,02,27,15,17,3.80
2019,02,27,15,18,3.80
2019,02,27,15,19,3.80
2019,02,27,15,20,3.80
2019,02,27,15,21,3.80
2019,02,27,15,22,3.80
2019,02,27,15,23,3.80
2019,02,27,15,24,3.80
2019,02,27,15,25,3.80
2019,02,27,15,26,3.80
2019,02,27,15,27,3.80
2019,02,27,15,28,3.80
2019,02,27,15,29,3.80
2019,02,27,15,30,3.80
2019,02,27,15,31,3.80
2019,02,27,15,32,3.80
2019,02,27,15,33,3.80
2019,02,27,15,34,3.90
2019,02,27,15,35,3.90
2019,02,27,15,36,3.90
2019,02,27,15,37,3.90
2019,02,27,15,38,3.90
2019,02,27,15,39,3.90
2019,02,27,15,40,3.90
2019,02,27,15,41,3.90
2019,02,27,15,42,3.90
2019,02,27,15,43,3.90
2019,02,27,15,44,3.90
2019,02,27,15,45,3.90
2019,02,27,15,46,3.90
2019,02,27,15,47,3.90
2019,02,27,15,48,3.90
2019,02,27,15,49,3.90
2019,02,27,15,50,3.90
2019,02,27,15,51,3.90
2019,02,27,15,52,3.90
2019,02,27,15,53,3.90
2019,02,27,15,54,3.90
2019,02,27,15,55,3.90
2019,02,27,15,56,3.90
2019,02,27,15,57,3.90
2019,02,27,15,58,3.90
2019,02,27,15,59,3.90
2019,02,27,16,00,3.90
2019,02,27,16,01,3.90
2019,02,27,16,02,3.90
2019,02,27,16,03,3.90
2019,02,27,16,04,3.80
2019,02,27,16,05,3.90
2019,02,27,16,06,3.90
2019,02,27,16,07,3.90
2019,02,27,16,08,3.90
2019,02,27,16,09,3.90
2019,02,27,16,10,3.90
2019,02,27,16,11,3.90
2019,02,27,16,12,3.90
2019,02,27,16,13,3.90
2019,02,27,16,14,3.90
2019,02,27,16,15,3.90
2019,02,27,16,16,3.90
2019,02,27,16,17,3.90
2019,02,27,16,18,3.90
2019,02,27,16,19,3.90
2019,02,27,16,20,3.90
2019,02,27,16,21,3.90
2019,02,27,16,22,3.90
2019,02,27,16,23,3.90
2019,02,27,16,24,3.90
2019,02,27,16,25,3.90
2019,02,27,16,26,3.90
2019,02,27,16,27,3.90
2019,02,27,16,28,3.90
2019,02,27,16,29,3.90
2019,02,27,16,30,3.90
2019,02,27,16,31,3.90
2019,02,27,16,32,3.90
2019,02,27,16,33,3.90
2019,02,27,16,34,3.90
2019,02,27,16,35,3.90
2019,02,27,16,36,3.90
2019,02,27,16,37,3.90
2019,02,27,16,38,3.90
2019,02,27,16,39,3.90
2019,02,27,16,40,3.90
2019,02,27,16,41,3.90
2019,02,27,16,42,3.90
2019,02,27,16,43,3.90
2019,02,27,16,44,3.90
2019,02,27,16,45,3.90
2019,02,27,16,46,3.90
2019,02,27,16,47,3.90
2019,02,27,16,48,3.90
2019,02,27,16,49,3.90
2019,02,27,16,50,3.90
2019,02,27,16,51,3.90
2019,02,27,16,52,3.90
2019,02,27,16,53,3.90
2019,02,27,16,54,3.90
2019,02,27,16,55,3.80
2019,02,27,16,56,3.80
2019,02,27,16,57,3.80
2019,02,27,16,58,3.80
2019,02,27,16,59,3.80
2019,02,27,17,00,3.80
2019,02,27,17,01,3.80
2019,02,27,17,02,3.80
2019,02,27,17,03,3.80
2019,02,27,17,04,3.80
2019,02,27,17,05,3.80
2019,02,27,17,06,3.80
2019,02,27,17,07,3.80
2019,02,27,17,08,3.80
2019,02,27,17,09,3.80
2019,02,27,17,10,3.80
2019,02,27,17,11,3.80
2019,02,27,17,12,3.80
2019,02,27,17,13,3.80
2019,02,27,17,14,3.80
2019,02,27,17,15,3.80
2019,02,27,17,16,3.80
2019,02,27,17,17,3.80
2019,02,27,17,18,3.80
2019,02,27,17,19,3.80
2019,02,27,17,20,3.80
2019,02,27,17,21,3.80
2019,02,27,17,22,3.80
2019,02,27,17,23,3.80
2019,02,27,17,24,3.80
2019,02,27,17,25,3.80
2019,02,27,17,26,3.80
2019,02,27,17,27,3.80
2019,02,27,17,28,3.80
2019,02,27,17,29,3.80
2019,02,27,17,30,3.80
2019,02,27,17,31,3.80
2019,02,27,17,32,3.80
2019,02,27,17,33,3.80
2019,02,27,17,34,3.80
2019,02,27,17,35,3.80
2019,02,27,17,36,3.80
2019,02,27,17,37,3.80
2019,02,27,17,38,3.80
2019,02,27,17,39,3.90